EZY78CA EGKK-LGKR

Flight info

Callsign EZY78CA
Flight time N/A
Altitude 37000
Route ODVIK Y311 DVR UL9 KONAN DCT KOK DCT RITAX DCT BANUX DCT BABEG DCT KUMOM DCT EVAXI DCT DARZA DCT UNIPA DCT VAKSU DCT RODON DCT LIMJA N732 PITAS
Aircraft A320/M-SDE3FGHIRWY/LB1

Departure

Time 2026-05-05 14:19
Airport London Gatwick Airport (EGKK)

Arrival

Time N/A
Airport Corfu Ioannis Kapodistrias International Airport (LGKR)
Time Latitude Longitude Altitude Speed Heading
2026-05-05 13:49 51.15776 -0.17944 205 ft 0 kts 33°
2026-05-05 14:05 51.15775 -0.17945 205 ft 2 kts 33°
2026-05-05 14:05 51.15755 -0.17966 214 ft 4 kts 33°
2026-05-05 14:05 51.15732 -0.17989 213 ft 4 kts 33°
2026-05-05 14:06 51.15709 -0.18013 207 ft 4 kts 33°
2026-05-05 14:06 51.15705 -0.18019 216 ft 4 kts 356°
2026-05-05 14:06 51.15709 -0.18038 212 ft 4 kts 324°
2026-05-05 14:06 51.15710 -0.18033 212 ft 3 kts 339°
2026-05-05 14:07 51.15726 -0.18011 214 ft 4 kts 52°
2026-05-05 14:07 51.15742 -0.17978 217 ft 4 kts 44°
2026-05-05 14:07 51.15737 -0.17984 210 ft 0 kts 35°
2026-05-05 14:10 51.15744 -0.17986 205 ft 1 kts 352°
2026-05-05 14:10 51.15744 -0.18000 205 ft 2 kts 271°
2026-05-05 14:11 51.15715 -0.18040 209 ft 12 kts 216°
2026-05-05 14:11 51.15668 -0.18183 211 ft 15 kts 257°
2026-05-05 14:11 51.15645 -0.18361 208 ft 19 kts 259°
2026-05-05 14:11 51.15617 -0.18562 209 ft 19 kts 257°
2026-05-05 14:12 51.15590 -0.18755 217 ft 18 kts 255°
2026-05-05 14:12 51.15503 -0.18814 209 ft 15 kts 167°
2026-05-05 14:12 51.15391 -0.18777 215 ft 16 kts 167°
2026-05-05 14:12 51.15259 -0.18732 214 ft 22 kts 167°
2026-05-05 14:13 51.15142 -0.18728 213 ft 17 kts 224°
2026-05-05 14:13 51.15109 -0.18912 209 ft 19 kts 258°
2026-05-05 14:13 51.15079 -0.19123 209 ft 18 kts 256°
2026-05-05 14:13 51.15053 -0.19307 212 ft 17 kts 257°
2026-05-05 14:14 51.15029 -0.19479 216 ft 15 kts 257°
2026-05-05 14:14 51.15005 -0.19640 205 ft 14 kts 257°
2026-05-05 14:14 51.14985 -0.19788 214 ft 13 kts 258°
2026-05-05 14:14 51.14966 -0.19927 209 ft 14 kts 258°
2026-05-05 14:15 51.14944 -0.20097 205 ft 17 kts 259°
2026-05-05 14:15 51.14916 -0.20302 205 ft 21 kts 259°
2026-05-05 14:15 51.14891 -0.20477 205 ft 15 kts 257°
2026-05-05 14:15 51.14867 -0.20659 213 ft 18 kts 258°
2026-05-05 14:16 51.14840 -0.20876 215 ft 22 kts 258°
2026-05-05 14:16 51.14806 -0.21102 211 ft 17 kts 255°
2026-05-05 14:16 51.14767 -0.21291 210 ft 20 kts 258°
2026-05-05 14:16 51.14708 -0.21388 216 ft 10 kts 178°
2026-05-05 14:17 51.14641 -0.21339 212 ft 12 kts 161°
2026-05-05 14:17 51.14555 -0.21286 209 ft 15 kts 142°
2026-05-05 14:17 51.14526 -0.21130 214 ft 8 kts 78°
2026-05-05 14:17 51.14526 -0.21128 214 ft 0 kts 78°
2026-05-05 14:18 51.14538 -0.21033 207 ft 36 kts 78°
2026-05-05 14:19 51.14647 -0.20263 211 ft 104 kts 78°
2026-05-05 14:19 51.14840 -0.18861 223 ft 153 kts 78°
2026-05-05 14:19 51.15055 -0.17182 719 ft 165 kts 78°
2026-05-05 14:19 51.15289 -0.15353 1458 ft 172 kts 75°
2026-05-05 14:20 51.15565 -0.13471 2167 ft 180 kts 75°
2026-05-05 14:20 51.15857 -0.11416 2525 ft 201 kts 76°
2026-05-05 14:20 51.16176 -0.09122 2917 ft 224 kts 76°
2026-05-05 14:20 51.16529 -0.06569 3471 ft 246 kts 76°
2026-05-05 14:21 51.16873 -0.03819 4342 ft 254 kts 83°
2026-05-05 14:21 51.16863 -0.00970 5280 ft 260 kts 89°
2026-05-05 14:21 51.16812 0.01936 6219 ft 265 kts 90°
2026-05-05 14:21 51.16756 0.04908 7080 ft 272 kts 91°
2026-05-05 14:22 51.16697 0.07921 7989 ft 277 kts 91°
2026-05-05 14:22 51.16635 0.11030 8916 ft 282 kts 91°
2026-05-05 14:22 51.16572 0.14176 9816 ft 287 kts 91°
2026-05-05 14:22 51.16524 0.17378 10758 ft 291 kts 90°
2026-05-05 14:23 51.16521 0.20619 11614 ft 294 kts 89°
2026-05-05 14:23 51.16537 0.23887 12507 ft 296 kts 89°
2026-05-05 14:23 51.16555 0.27175 13404 ft 298 kts 89°
2026-05-05 14:23 51.16570 0.30495 14240 ft 301 kts 89°
2026-05-05 14:24 51.16581 0.33842 14973 ft 304 kts 89°
2026-05-05 14:24 51.16588 0.37221 15684 ft 308 kts 89°
2026-05-05 14:24 51.16591 0.40660 16392 ft 312 kts 89°
2026-05-05 14:24 51.16593 0.44144 17097 ft 316 kts 90°
2026-05-05 14:25 51.16599 0.47667 17780 ft 321 kts 90°
2026-05-05 14:25 51.16602 0.51273 18181 ft 335 kts 90°
2026-05-05 14:25 51.16601 0.55103 18334 ft 355 kts 90°
2026-05-05 14:25 51.16594 0.59130 18452 ft 373 kts 90°
2026-05-05 14:26 51.16586 0.63373 18556 ft 391 kts 90°
2026-05-05 14:26 51.16578 0.67744 18768 ft 402 kts 90°
2026-05-05 14:26 51.16570 0.72231 19191 ft 407 kts 90°
2026-05-05 14:26 51.16561 0.76748 19661 ft 410 kts 90°
2026-05-05 14:27 51.16550 0.81312 20060 ft 413 kts 91°
2026-05-05 14:27 51.16536 0.85901 20559 ft 416 kts 91°
2026-05-05 14:27 51.16520 0.90533 21046 ft 419 kts 91°
2026-05-05 14:27 51.16501 0.95175 21523 ft 422 kts 91°
2026-05-05 14:28 51.16479 0.99867 21997 ft 425 kts 92°
2026-05-05 14:28 51.16453 1.04522 22448 ft 428 kts 92°
2026-05-05 14:28 51.16427 1.09300 22902 ft 431 kts 92°
2026-05-05 14:28 51.16403 1.14089 23331 ft 434 kts 92°
2026-05-05 14:29 51.16377 1.18910 23704 ft 437 kts 92°
2026-05-05 14:29 51.16358 1.22117 23965 ft 438 kts 92°
2026-05-05 14:29 51.16324 1.26990 24344 ft 440 kts 92°
2026-05-05 14:29 51.16288 1.31877 24735 ft 442 kts 92°
2026-05-05 14:30 51.16242 1.36786 25104 ft 444 kts 93°
2026-05-05 14:30 51.16110 1.41706 25462 ft 446 kts 95°
2026-05-05 14:30 51.15891 1.46613 25806 ft 447 kts 96°
2026-05-05 14:30 51.15617 1.51554 26144 ft 449 kts 97°
2026-05-05 14:31 51.15325 1.56513 26473 ft 451 kts 97°
2026-05-05 14:31 51.15040 1.61507 26782 ft 453 kts 97°
2026-05-05 14:31 51.14770 1.66515 27108 ft 455 kts 97°
2026-05-05 14:31 51.14509 1.71559 27414 ft 458 kts 97°
2026-05-05 14:32 51.14254 1.76618 27713 ft 460 kts 96°
2026-05-05 14:32 51.14001 1.81708 28001 ft 462 kts 96°
2026-05-05 14:32 51.13753 1.86782 28399 ft 462 kts 96°
2026-05-05 14:32 51.13501 1.91875 28827 ft 461 kts 97°
2026-05-05 14:33 51.13242 1.96957 29249 ft 460 kts 97°
2026-05-05 14:33 51.12976 2.02035 29663 ft 460 kts 97°
2026-05-05 14:33 51.12708 2.07101 30070 ft 459 kts 97°
2026-05-05 14:33 51.12438 2.12161 30417 ft 459 kts 97°
2026-05-05 14:34 51.12167 2.17220 30767 ft 458 kts 97°
2026-05-05 14:34 51.11894 2.22276 31126 ft 458 kts 97°
2026-05-05 14:34 51.11621 2.27283 31484 ft 457 kts 97°
2026-05-05 14:34 51.11344 2.32313 31847 ft 456 kts 97°
2026-05-05 14:35 51.11063 2.37341 32214 ft 455 kts 97°
2026-05-05 14:35 51.10781 2.42347 32574 ft 454 kts 97°
2026-05-05 14:35 51.10496 2.47353 32945 ft 453 kts 97°
2026-05-05 14:35 51.10211 2.52342 33319 ft 452 kts 97°
2026-05-05 14:36 51.09926 2.57320 33689 ft 451 kts 97°
2026-05-05 14:36 51.09561 2.62266 34030 ft 449 kts 103°
2026-05-05 14:36 51.08774 2.67045 34323 ft 445 kts 112°
2026-05-05 14:36 51.07567 2.71530 34594 ft 443 kts 118°
2026-05-05 14:37 51.06220 2.75932 34859 ft 443 kts 118°
2026-05-05 14:37 51.04858 2.80398 35124 ft 444 kts 118°
2026-05-05 14:37 51.03512 2.84813 35372 ft 444 kts 118°
2026-05-05 14:37 51.02167 2.89226 35616 ft 444 kts 118°
2026-05-05 14:38 51.00836 2.93590 35841 ft 445 kts 118°
2026-05-05 14:38 50.99467 2.98073 36073 ft 445 kts 118°
2026-05-05 14:38 50.98132 3.02437 36301 ft 446 kts 118°
2026-05-05 14:38 50.96782 3.06832 36507 ft 446 kts 118°
2026-05-05 14:39 50.95421 3.11253 36727 ft 446 kts 118°
2026-05-05 14:39 50.94052 3.15689 36870 ft 448 kts 118°
2026-05-05 14:39 50.91300 3.24575 36893 ft 449 kts 118°
2026-05-05 14:40 50.88528 3.33513 36886 ft 449 kts 118°
2026-05-05 14:40 50.85793 3.42293 36886 ft 449 kts 119°
2026-05-05 14:41 50.83032 3.51145 36884 ft 448 kts 119°
2026-05-05 14:41 50.80250 3.60041 36884 ft 448 kts 119°
2026-05-05 14:42 50.77493 3.68807 36885 ft 448 kts 119°
2026-05-05 14:42 50.74726 3.77556 36886 ft 448 kts 119°
2026-05-05 14:43 50.71935 3.86355 36891 ft 448 kts 119°
2026-05-05 14:43 50.69214 3.94929 36893 ft 448 kts 119°
2026-05-05 14:44 50.66404 4.03738 36896 ft 447 kts 119°
2026-05-05 14:44 50.63639 4.12374 36899 ft 447 kts 120°
2026-05-05 14:45 50.60824 4.21116 36906 ft 446 kts 120°
2026-05-05 14:45 50.58020 4.29809 36902 ft 446 kts 120°
2026-05-05 14:46 50.55207 4.38505 36907 ft 446 kts 120°
2026-05-05 14:46 50.52398 4.47155 36908 ft 445 kts 120°
2026-05-05 14:47 50.49589 4.55766 36909 ft 445 kts 120°
2026-05-05 14:47 50.46763 4.64410 36907 ft 445 kts 120°
2026-05-05 14:48 50.43935 4.73049 36901 ft 445 kts 120°
2026-05-05 14:48 50.41095 4.81664 36899 ft 445 kts 120°
2026-05-05 14:49 50.38257 4.90244 36890 ft 444 kts 120°
2026-05-05 14:49 50.35410 4.98833 36884 ft 444 kts 120°
2026-05-05 14:50 50.32557 5.07400 36881 ft 444 kts 120°
2026-05-05 14:50 50.29719 5.15918 36876 ft 444 kts 120°